User: anonymous   Login
Location: DARK SKY Beskydy - Park tmavé oblohy, www.darkskybeskydy.cz
(49.4926°N, 18.5016°E)
Time: 06:39:34
(UTC+02:00)
Language:

M-CUBED/EXP-1 PRIME - Orbit

View from above orbital plane
View from above orbital plane
View from above satellite
View from above satellite

Ground track
Ground track

The orbit data is extracted from the following two-line orbital elements,

1 37855U 11061F   24106.36975800  .00166215  00000-0  19193-2 0  9994
2 37855 101.6882 251.8932 0061295 178.7169 181.4240 15.59017765683180
Epoch (UTC): 15 April 2024 08:52:27
Eccentricity: 0.0061295
inclination: 101.6882°
perigee height: 349 km
apogee height: 432 km
right ascension of ascending node: 251.8932°
argument of perigee: 178.7169°
revolutions per day: 15.59017765
mean anomaly at epoch: 181.4240°
orbit number at epoch: 68318

The dashed part of the orbit path shows where the satellite is in the earth's shadow,  

DLR